RYR90RC LGKR-LIME

Flight info

Callsign RYR90RC
Flight time 1h 37m
Altitude 36000
Route OLGAT DCT OKIMO DCT ENOXA DCT GARGA DCT ANC DCT BOA DCT OGPUD DCT BETMU DCT OSBUL
Aircraft B38M/M-SADE3FGILRWY/SB1

Departure

Time 2026-05-04 12:30
Airport Corfu Ioannis Kapodistrias International Airport (LGKR)

Arrival

Time 2026-05-04 14:08
Airport Il Caravaggio International Airport (LIME)
Time Latitude Longitude Altitude Speed Heading
2026-05-04 12:02 39.60668 19.91352 14 ft 0 kts 78°
2026-05-04 12:17 39.60666 19.91345 11 ft 4 kts 78°
2026-05-04 12:17 39.60661 19.91310 11 ft 4 kts 76°
2026-05-04 12:18 39.60654 19.91277 14 ft 4 kts 73°
2026-05-04 12:18 39.60644 19.91244 14 ft 4 kts 63°
2026-05-04 12:18 39.60629 19.91218 13 ft 4 kts 29°
2026-05-04 12:18 39.60623 19.91214 14 ft 0 kts 16°
2026-05-04 12:26 39.60628 19.91216 13 ft 3 kts 17°
2026-05-04 12:26 39.60681 19.91218 12 ft 14 kts 351°
2026-05-04 12:26 39.60803 19.91187 11 ft 20 kts 348°
2026-05-04 12:27 39.60947 19.91152 12 ft 22 kts 349°
2026-05-04 12:27 39.61078 19.91116 12 ft 14 kts 348°
2026-05-04 12:27 39.61148 19.91099 12 ft 11 kts 348°
2026-05-04 12:27 39.61164 19.91094 12 ft 0 kts 348°
2026-05-04 12:28 39.61167 19.91094 12 ft 1 kts 348°
2026-05-04 12:28 39.61183 19.91089 12 ft 3 kts 346°
2026-05-04 12:28 39.61209 19.91059 13 ft 8 kts 301°
2026-05-04 12:29 39.61216 19.90964 13 ft 8 kts 230°
2026-05-04 12:29 39.61192 19.90957 13 ft 1 kts 171°
2026-05-04 12:29 39.61192 19.90958 13 ft 0 kts 171°
2026-05-04 12:30 39.61150 19.90968 13 ft 30 kts 168°
2026-05-04 12:30 39.60655 19.91096 10 ft 112 kts 169°
2026-05-04 12:30 39.59678 19.91348 138 ft 162 kts 168°
2026-05-04 12:30 39.58529 19.91645 894 ft 172 kts 166°
2026-05-04 12:31 39.57439 19.92289 1761 ft 181 kts 142°
2026-05-04 12:31 39.56715 19.93706 2454 ft 198 kts 99°
2026-05-04 12:31 39.56941 19.95460 3304 ft 205 kts 53°
2026-05-04 12:31 39.58091 19.96508 4032 ft 215 kts
2026-05-04 12:32 39.59496 19.96252 5234 ft 207 kts 330°
2026-05-04 12:32 39.60557 19.92825 7012 ft 231 kts 258°
2026-05-04 12:32 39.59790 19.90948 7839 ft 248 kts 231°
2026-05-04 12:33 39.58508 19.89325 8494 ft 268 kts 225°
2026-05-04 12:33 39.57076 19.87639 9114 ft 288 kts 225°
2026-05-04 12:33 39.55546 19.85852 9855 ft 301 kts 225°
2026-05-04 12:33 39.53977 19.84037 10722 ft 308 kts 225°
2026-05-04 12:34 39.52324 19.82130 11178 ft 328 kts 225°
2026-05-04 12:34 39.50586 19.80127 11737 ft 341 kts 225°
2026-05-04 12:34 39.48803 19.78061 12481 ft 344 kts 227°
2026-05-04 12:34 39.47464 19.75593 13149 ft 340 kts 253°
2026-05-04 12:35 39.47121 19.72635 13857 ft 331 kts 281°
2026-05-04 12:35 39.47835 19.69857 14428 ft 324 kts 306°
2026-05-04 12:35 39.49245 19.67606 15036 ft 323 kts 320°
2026-05-04 12:35 39.51028 19.65857 15657 ft 322 kts 326°
2026-05-04 12:36 39.52853 19.64149 16260 ft 325 kts 326°
2026-05-04 12:36 39.54702 19.62456 16872 ft 326 kts 327°
2026-05-04 12:36 39.56570 19.60770 17458 ft 328 kts 327°
2026-05-04 12:36 39.58451 19.59083 18079 ft 330 kts 327°
2026-05-04 12:37 39.60345 19.57395 18713 ft 332 kts 327°
2026-05-04 12:37 39.62257 19.55696 19268 ft 334 kts 327°
2026-05-04 12:37 39.64157 19.54009 19810 ft 337 kts 327°
2026-05-04 12:37 39.66097 19.52285 20357 ft 339 kts 327°
2026-05-04 12:38 39.68051 19.50550 20901 ft 342 kts 327°
2026-05-04 12:38 39.70025 19.48798 21418 ft 345 kts 327°
2026-05-04 12:38 39.72012 19.47029 21945 ft 348 kts 327°
2026-05-04 12:38 39.74017 19.45246 22456 ft 351 kts 327°
2026-05-04 12:39 39.76042 19.43444 22941 ft 355 kts 327°
2026-05-04 12:39 39.78085 19.41623 23464 ft 357 kts 327°
2026-05-04 12:39 39.80141 19.39790 23939 ft 360 kts 327°
2026-05-04 12:39 39.82212 19.37941 24399 ft 362 kts 327°
2026-05-04 12:40 39.84265 19.36109 24859 ft 364 kts 327°
2026-05-04 12:40 39.86355 19.34243 25303 ft 365 kts 327°
2026-05-04 12:40 39.88455 19.32366 25759 ft 367 kts 327°
2026-05-04 12:40 39.90565 19.30479 26204 ft 369 kts 327°
2026-05-04 12:41 39.92684 19.28584 26643 ft 371 kts 326°
2026-05-04 12:41 39.94815 19.26678 27059 ft 373 kts 326°
2026-05-04 12:41 39.96958 19.24758 27468 ft 375 kts 326°
2026-05-04 12:41 39.99113 19.22827 27888 ft 377 kts 326°
2026-05-04 12:42 40.01245 19.20914 28292 ft 378 kts 326°
2026-05-04 12:42 40.03417 19.18964 28688 ft 380 kts 326°
2026-05-04 12:42 40.05604 19.17001 29074 ft 382 kts 326°
2026-05-04 12:42 40.07799 19.15028 29459 ft 384 kts 326°
2026-05-04 12:43 40.10008 19.13042 29840 ft 386 kts 326°
2026-05-04 12:43 40.12223 19.11048 30172 ft 388 kts 326°
2026-05-04 12:43 40.14456 19.09037 30410 ft 392 kts 326°
2026-05-04 12:43 40.16708 19.07008 30714 ft 394 kts 326°
2026-05-04 12:44 40.18966 19.04973 31030 ft 395 kts 326°
2026-05-04 12:44 40.21200 19.02955 31313 ft 397 kts 326°
2026-05-04 12:44 40.23481 19.00895 31611 ft 399 kts 325°
2026-05-04 12:44 40.25570 18.98505 31907 ft 401 kts 314°
2026-05-04 12:45 40.27491 18.95859 32218 ft 402 kts 315°
2026-05-04 12:45 40.29436 18.93230 32590 ft 401 kts 315°
2026-05-04 12:45 40.31369 18.90600 33014 ft 400 kts 315°
2026-05-04 12:45 40.33291 18.87978 33427 ft 398 kts 315°
2026-05-04 12:46 40.35204 18.85365 33840 ft 397 kts 315°
2026-05-04 12:46 40.37082 18.82797 34231 ft 395 kts 315°
2026-05-04 12:46 40.38979 18.80202 34549 ft 394 kts 315°
2026-05-04 12:46 40.40878 18.77601 34792 ft 395 kts 314°
2026-05-04 12:47 40.42778 18.74994 35005 ft 397 kts 314°
2026-05-04 12:47 40.44689 18.72372 35229 ft 398 kts 314°
2026-05-04 12:47 40.46602 18.69745 35488 ft 398 kts 314°
2026-05-04 12:47 40.48515 18.67115 35745 ft 398 kts 314°
2026-05-04 12:48 40.50427 18.64485 35993 ft 398 kts 314°
2026-05-04 12:48 40.52343 18.61846 36125 ft 400 kts 314°
2026-05-04 12:48 40.54235 18.59237 36126 ft 399 kts 314°
2026-05-04 12:49 40.58052 18.53970 36125 ft 398 kts 314°
2026-05-04 12:49 40.61866 18.48696 36127 ft 398 kts 314°
2026-05-04 12:50 40.65677 18.43418 36131 ft 398 kts 314°
2026-05-04 12:50 40.69491 18.38125 36122 ft 399 kts 314°
2026-05-04 12:51 40.73285 18.32852 36127 ft 399 kts 314°
2026-05-04 12:51 40.77107 18.27530 36130 ft 400 kts 314°
2026-05-04 12:52 40.80927 18.22201 36124 ft 399 kts 314°
2026-05-04 12:52 40.84742 18.16870 36124 ft 399 kts 314°
2026-05-04 12:53 40.88529 18.11569 36118 ft 399 kts 314°
2026-05-04 12:53 40.92340 18.06226 36126 ft 400 kts 314°
2026-05-04 12:54 40.96147 18.00867 36124 ft 400 kts 314°
2026-05-04 12:54 40.99954 17.95502 36127 ft 400 kts 314°
2026-05-04 12:55 41.03734 17.90164 36124 ft 400 kts 314°
2026-05-04 12:55 41.07538 17.84783 36126 ft 400 kts 314°
2026-05-04 12:56 41.11342 17.79392 36122 ft 400 kts 314°
2026-05-04 12:56 41.15144 17.73996 36113 ft 400 kts 313°
2026-05-04 12:57 41.18950 17.68582 36122 ft 402 kts 313°
2026-05-04 12:57 41.22744 17.63193 36125 ft 402 kts 313°
2026-05-04 12:58 41.26559 17.57767 36131 ft 402 kts 313°
2026-05-04 12:58 41.30377 17.52326 36121 ft 402 kts 313°
2026-05-04 12:59 41.34192 17.46879 36124 ft 402 kts 313°
2026-05-04 12:59 41.38006 17.41423 36122 ft 402 kts 313°
2026-05-04 13:00 41.41792 17.35997 36125 ft 404 kts 313°
2026-05-04 13:00 41.45619 17.30503 36121 ft 404 kts 313°
2026-05-04 13:01 41.49441 17.25007 36127 ft 404 kts 313°
2026-05-04 13:01 41.53262 17.19500 36121 ft 404 kts 313°
2026-05-04 13:02 41.57055 17.14023 36123 ft 404 kts 313°
2026-05-04 13:02 41.60871 17.08504 36129 ft 404 kts 313°
2026-05-04 13:03 41.64683 17.02979 36111 ft 405 kts 312°
2026-05-04 13:03 41.68513 16.97420 36124 ft 407 kts 312°
2026-05-04 13:04 41.72315 16.91889 36129 ft 406 kts 312°
2026-05-04 13:04 41.76137 16.86318 36126 ft 406 kts 312°
2026-05-04 13:05 41.79962 16.80734 36116 ft 407 kts 312°
2026-05-04 13:05 41.83786 16.75140 36114 ft 407 kts 312°
2026-05-04 13:06 41.87584 16.69573 36111 ft 407 kts 312°
2026-05-04 13:06 41.91409 16.63956 36121 ft 408 kts 312°
2026-05-04 13:07 41.95237 16.58323 36117 ft 408 kts 312°
2026-05-04 13:07 41.99063 16.52684 36103 ft 408 kts 311°
2026-05-04 13:08 42.02858 16.47079 36102 ft 408 kts 311°
2026-05-04 13:08 42.06681 16.41422 36113 ft 409 kts 311°
2026-05-04 13:09 42.10507 16.35749 36107 ft 409 kts 311°
2026-05-04 13:09 42.14333 16.30063 36112 ft 411 kts 311°
2026-05-04 13:10 42.18170 16.24354 36107 ft 411 kts 311°
2026-05-04 13:10 42.22003 16.18641 36106 ft 411 kts 311°
2026-05-04 13:11 42.25808 16.12959 36102 ft 411 kts 311°
2026-05-04 13:11 42.29199 16.06782 36118 ft 411 kts 305°
2026-05-04 13:12 42.32487 16.00479 36110 ft 411 kts 304°
2026-05-04 13:12 42.35771 15.94150 36108 ft 412 kts 304°
2026-05-04 13:13 42.39035 15.87847 36101 ft 412 kts 304°
2026-05-04 13:13 42.42315 15.81498 36103 ft 412 kts 304°
2026-05-04 13:14 42.45593 15.75141 36103 ft 412 kts 304°
2026-05-04 13:14 42.48867 15.68776 36103 ft 412 kts 304°
2026-05-04 13:15 42.52137 15.62405 36094 ft 412 kts 304°
2026-05-04 13:15 42.55384 15.56068 36103 ft 413 kts 304°
2026-05-04 13:16 42.58653 15.49672 36099 ft 413 kts 303°
2026-05-04 13:16 42.61929 15.43251 36098 ft 414 kts 303°
2026-05-04 13:17 42.65201 15.36822 36100 ft 414 kts 303°
2026-05-04 13:17 42.68447 15.30432 36100 ft 414 kts 303°
2026-05-04 13:18 42.71713 15.23987 36096 ft 415 kts 303°
2026-05-04 13:18 42.74988 15.17512 36101 ft 415 kts 303°
2026-05-04 13:19 42.78258 15.11032 36099 ft 415 kts 303°
2026-05-04 13:19 42.81525 15.04544 36101 ft 415 kts 303°
2026-05-04 13:20 42.84768 14.98089 36106 ft 415 kts 303°
2026-05-04 13:20 42.88028 14.91586 36089 ft 415 kts 303°
2026-05-04 13:21 42.91285 14.85076 36094 ft 415 kts 303°
2026-05-04 13:21 42.94538 14.78559 36093 ft 415 kts 303°
2026-05-04 13:22 42.97763 14.72083 36095 ft 415 kts 303°
2026-05-04 13:22 43.01009 14.65552 36097 ft 415 kts 303°
2026-05-04 13:23 43.04248 14.59021 36097 ft 415 kts 303°
2026-05-04 13:23 43.07485 14.52479 36095 ft 415 kts 303°
2026-05-04 13:24 43.10716 14.45935 36092 ft 415 kts 303°
2026-05-04 13:24 43.13922 14.39425 36087 ft 416 kts 302°
2026-05-04 13:25 43.18765 14.29569 36099 ft 416 kts 302°
2026-05-04 13:25 43.21988 14.22989 36099 ft 416 kts 302°
2026-05-04 13:26 43.25187 14.16444 36096 ft 416 kts 302°
2026-05-04 13:26 43.28403 14.09849 36094 ft 416 kts 302°
2026-05-04 13:27 43.31619 14.03241 36077 ft 416 kts 302°
2026-05-04 13:27 43.34829 13.96631 36089 ft 416 kts 302°
2026-05-04 13:28 43.38013 13.90058 36092 ft 416 kts 302°
2026-05-04 13:28 43.41217 13.83429 36083 ft 417 kts 302°
2026-05-04 13:29 43.44424 13.76780 36093 ft 418 kts 302°
2026-05-04 13:29 43.47630 13.70118 36093 ft 417 kts 302°
2026-05-04 13:30 43.50835 13.63448 36090 ft 417 kts 302°
2026-05-04 13:30 43.54010 13.56825 36090 ft 417 kts 302°
2026-05-04 13:31 43.57205 13.50145 36075 ft 417 kts 302°
2026-05-04 13:31 43.60304 13.43369 36115 ft 419 kts 300°
2026-05-04 13:32 43.63384 13.36534 36110 ft 419 kts 300°
2026-05-04 13:32 43.66445 13.29738 36106 ft 421 kts 300°
2026-05-04 13:33 43.69538 13.22859 36097 ft 422 kts 300°
2026-05-04 13:33 43.72628 13.15970 36096 ft 421 kts 300°
2026-05-04 13:34 43.75712 13.09078 36076 ft 421 kts 300°
2026-05-04 13:34 43.78770 13.02227 36085 ft 421 kts 300°
2026-05-04 13:35 43.83381 12.91868 36091 ft 421 kts 300°
2026-05-04 13:36 43.86447 12.84959 36096 ft 421 kts 300°
2026-05-04 13:36 43.89490 12.78085 36098 ft 421 kts 300°
2026-05-04 13:37 43.92549 12.71157 36099 ft 421 kts 300°
2026-05-04 13:37 43.95604 12.64223 36098 ft 421 kts 299°
2026-05-04 13:38 43.98657 12.57278 36098 ft 421 kts 299°
2026-05-04 13:38 44.01705 12.50327 36107 ft 421 kts 299°
2026-05-04 13:39 44.04730 12.43412 36097 ft 421 kts 299°
2026-05-04 13:39 44.07765 12.36456 36101 ft 420 kts 299°
2026-05-04 13:40 44.10780 12.29529 36097 ft 418 kts 299°
2026-05-04 13:40 44.13792 12.22593 36104 ft 418 kts 299°
2026-05-04 13:41 44.16778 12.15702 36102 ft 418 kts 299°
2026-05-04 13:41 44.19778 12.08760 36102 ft 418 kts 299°
2026-05-04 13:42 44.24267 11.98340 36107 ft 417 kts 298°
2026-05-04 13:42 44.27245 11.91409 36097 ft 416 kts 298°
2026-05-04 13:43 44.30197 11.84521 36088 ft 416 kts 298°
2026-05-04 13:43 44.33162 11.77585 36083 ft 416 kts 298°
2026-05-04 13:44 44.36126 11.70635 36090 ft 416 kts 298°
2026-05-04 13:44 44.39081 11.63689 36093 ft 415 kts 298°
2026-05-04 13:45 44.42021 11.56761 36082 ft 415 kts 298°
2026-05-04 13:45 44.44953 11.49835 36079 ft 417 kts 298°
2026-05-04 13:46 44.47903 11.42856 35429 ft 417 kts 298°
2026-05-04 13:46 44.49387 11.39341 34736 ft 420 kts 298°
2026-05-04 13:46 44.50872 11.35817 34087 ft 421 kts 298°
2026-05-04 13:47 44.52366 11.32266 33272 ft 424 kts 298°
2026-05-04 13:47 44.53809 11.28653 32442 ft 425 kts 292°
2026-05-04 13:47 44.54919 11.24859 31618 ft 428 kts 290°
2026-05-04 13:47 44.56060 11.20991 30860 ft 430 kts 290°
2026-05-04 13:48 44.57202 11.17088 30075 ft 437 kts 290°
2026-05-04 13:48 44.58364 11.13105 29273 ft 445 kts 290°
2026-05-04 13:48 44.59536 11.09079 28667 ft 447 kts 290°
2026-05-04 13:48 44.60707 11.05046 28056 ft 445 kts 290°
2026-05-04 13:49 44.61865 11.01044 27386 ft 441 kts 290°
2026-05-04 13:49 44.63001 10.97108 26675 ft 440 kts 290°
2026-05-04 13:49 44.64142 10.93146 26121 ft 436 kts 290°
2026-05-04 13:49 44.65271 10.89217 25523 ft 433 kts 290°
2026-05-04 13:50 44.66392 10.85313 24917 ft 430 kts 290°
2026-05-04 13:50 44.67506 10.81421 24286 ft 428 kts 290°
2026-05-04 13:50 44.68614 10.77537 23655 ft 427 kts 290°
2026-05-04 13:50 44.69713 10.73677 22997 ft 424 kts 290°
2026-05-04 13:51 44.70804 10.69841 22386 ft 420 kts 290°
2026-05-04 13:51 44.71882 10.66047 21806 ft 416 kts 290°
2026-05-04 13:51 44.72950 10.62279 21242 ft 413 kts 290°
2026-05-04 13:51 44.73992 10.58598 20685 ft 410 kts 290°
2026-05-04 13:52 44.76076 10.51221 19850 ft 397 kts 290°
2026-05-04 13:52 44.77082 10.47652 19576 ft 388 kts 289°
2026-05-04 13:52 44.78063 10.44167 19356 ft 378 kts 289°
2026-05-04 13:53 44.79022 10.40754 19177 ft 369 kts 289°
2026-05-04 13:53 44.79956 10.37425 18932 ft 366 kts 289°
2026-05-04 13:53 44.80906 10.34041 18485 ft 375 kts 289°
2026-05-04 13:54 44.83888 10.28008 16854 ft 396 kts 320°
2026-05-04 13:54 44.86218 10.25847 15970 ft 404 kts 324°
2026-05-04 13:54 44.91035 10.21526 14391 ft 413 kts 325°
2026-05-04 13:55 44.93455 10.19371 13875 ft 409 kts 324°
2026-05-04 13:55 44.98222 10.15128 12856 ft 400 kts 324°
2026-05-04 13:55 45.00563 10.13041 12379 ft 396 kts 324°
2026-05-04 13:56 45.02852 10.10999 11908 ft 392 kts 325°
2026-05-04 13:56 45.05145 10.08949 11447 ft 388 kts 325°
2026-05-04 13:56 45.09592 10.04966 11027 ft 367 kts 325°
2026-05-04 13:57 45.11721 10.03056 10855 ft 357 kts 325°
2026-05-04 13:57 45.13791 10.01198 10669 ft 348 kts 325°
2026-05-04 13:58 45.19654 9.95926 10198 ft 321 kts 324°
2026-05-04 13:58 45.23565 9.93132 9580 ft 320 kts 351°
2026-05-04 13:58 45.25787 9.93211 9158 ft 321 kts
2026-05-04 13:59 45.27990 9.93525 8792 ft 313 kts
2026-05-04 13:59 45.30118 9.93807 8462 ft 302 kts
2026-05-04 13:59 45.34182 9.94334 7875 ft 289 kts
2026-05-04 14:00 45.36174 9.94591 7583 ft 287 kts
2026-05-04 14:00 45.40108 9.95098 6997 ft 284 kts
2026-05-04 14:00 45.42073 9.95352 6703 ft 283 kts
2026-05-04 14:01 45.44015 9.95603 6533 ft 277 kts
2026-05-04 14:01 45.45907 9.95847 6391 ft 269 kts
2026-05-04 14:01 45.49535 9.96317 6104 ft 254 kts
2026-05-04 14:02 45.51238 9.96831 5883 ft 249 kts 17°
2026-05-04 14:02 45.52901 9.97505 5596 ft 248 kts 16°
2026-05-04 14:02 45.54542 9.98143 5351 ft 245 kts 15°
2026-05-04 14:02 45.56164 9.98760 5220 ft 237 kts 15°
2026-05-04 14:03 45.57734 9.99349 5065 ft 230 kts 15°
2026-05-04 14:03 45.59310 9.99593 4757 ft 231 kts 352°
2026-05-04 14:03 45.60782 9.98742 4447 ft 230 kts 322°
2026-05-04 14:03 45.61775 9.97046 4234 ft 220 kts 298°
2026-05-04 14:04 45.62660 9.93008 3680 ft 211 kts 284°
2026-05-04 14:04 45.63015 9.90995 3410 ft 207 kts 284°
2026-05-04 14:04 45.63380 9.89020 3147 ft 204 kts 285°
2026-05-04 14:05 45.64107 9.85104 2593 ft 202 kts 285°
2026-05-04 14:05 45.64466 9.83170 2326 ft 201 kts 284°
2026-05-04 14:05 45.64822 9.81256 2079 ft 194 kts 285°
2026-05-04 14:06 45.65145 9.79513 1824 ft 176 kts 284°
2026-05-04 14:06 45.65443 9.77914 1616 ft 156 kts 284°
2026-05-04 14:06 45.65709 9.76486 1430 ft 147 kts 284°
2026-05-04 14:06 45.65961 9.75065 1186 ft 147 kts 282°
2026-05-04 14:07 45.66229 9.73677 998 ft 144 kts 283°
2026-05-04 14:07 45.66484 9.72311 813 ft 139 kts 284°
2026-05-04 14:07 45.66710 9.71100 784 ft 102 kts 284°
2026-05-04 14:07 45.66844 9.70375 792 ft 54 kts 285°
2026-05-04 14:08 45.66892 9.70114 795 ft 16 kts 284°
2026-05-04 14:08 45.66874 9.69975 794 ft 15 kts 239°
2026-05-04 14:08 45.66829 9.69864 794 ft 6 kts 227°
2026-05-04 14:08 45.66785 9.69856 794 ft 8 kts 149°
2026-05-04 14:09 45.66741 9.70012 793 ft 6 kts 105°
2026-05-04 14:09 45.66733 9.70058 792 ft 5 kts 105°
2026-05-04 14:10 45.66697 9.70078 792 ft 4 kts 196°
2026-05-04 14:10 45.66674 9.70069 792 ft 1 kts 195°
2026-05-04 14:10 45.66659 9.70064 792 ft 2 kts 195°
2026-05-04 14:10 45.66655 9.70062 792 ft 0 kts 195°